GW0175 Weather Reports


time (UTC)temp
F
wind
direction
speed
knots
gust
knots
rain 1hr
in
rain 24hr
in
rain mn
in
humidity
%
barometer
mb
20260505064045 64 220 1.7 1.7 0.00 0.00 0.00 51 1005.3
20260505063542 63 255 0.0 1.7 0.00 0.00 0.00 53 1005.5
20260505063037 63 270 0.0 0.0 0.00 0.00 0.00 58 1005.7
20260505062534 63 270 0.0 0.9 0.00 0.00 0.00 53 1005.6
20260505062031 63 246 0.0 0.9 0.00 0.00 0.00 55 1005.5
20260505061529 64 98 0.0 0.9 0.00 0.00 0.00 54 1006.0
20260505061027 64 172 0.0 0.0 0.00 0.00 0.00 51 1005.6
20260505060524 65 172 0.0 1.7 0.00 0.00 0.00 51 1005.6
20260505060020 64 209 0.9 1.7 0.00 0.00 0.00 51 1005.9
20260505055516 64 243 0.0 0.9 0.00 0.00 0.00 52 1005.7
20260505055013 64 145 0.0 0.0 0.00 0.00 0.00 53 1005.6
20260505054510 65 145 0.0 0.9 0.00 0.00 0.00 53 1005.7
20260505054008 65 154 0.0 0.0 0.00 0.00 0.00 53 1006.2
20260505053505 66 154 0.0 0.0 0.00 0.00 0.00 52 1006.0
20260505053001 66 228 0.0 1.7 0.00 0.00 0.00 49 1006.3
20260505052459 67 15 0.0 0.9 0.00 0.00 0.00 47 1006.3
20260505051956 66 299 1.7 2.6 0.00 0.00 0.00 47 1006.3
20260505051452 66 0 0.0 0.0 0.00 0.00 0.00 48 1006.2
20260505050951 66 12 0.9 1.7 0.00 0.00 0.00 48 1006.4
20260505050449 66 23 0.0 1.7 0.00 0.00 0.00 49 1006.3
20260505041416 74 287 1.7 2.6 0.00 0.00 0.00 31 1006.3
20260505040913 73 308 4.3 4.3 0.00 0.00 0.00 32 1006.3
20260505040411 72 278 2.6 4.3 0.00 0.00 0.00 34 1006.3
20260505035907 71 276 1.7 2.6 0.00 0.00 0.00 35 1006.2
20260505035403 71 229 1.7 4.3 0.00 0.00 0.00 35 1006.7
20260505034901 70 185 0.9 2.6 0.00 0.00 0.00 36 1005.9
20260505034357 71 194 0.0 1.7 0.00 0.00 0.00 36 1006.0
20260505033855 72 253 1.7 2.6 0.00 0.00 0.00 34 1005.7
20260505033351 73 275 1.7 2.6 0.00 0.00 0.00 33 1005.6
20260505032849 74 270 0.0 2.6 0.00 0.00 0.00 31 1006.0
20260505032346 74 270 1.7 4.3 0.00 0.00 0.00 30 1005.5
20260505031842 75 270 0.0 5.2 0.00 0.00 0.00 28 1005.3
20260505031339 76 294 2.6 7.0 0.00 0.00 0.00 27 1005.2
20260505030837 76 263 2.6 6.1 0.00 0.00 0.00 27 1005.2
20260505030332 76 264 4.3 5.2 0.00 0.00 0.00 27 1004.9
20260505025828 76 233 2.6 5.2 0.00 0.00 0.00 27 1005.2
20260505025326 76 275 1.7 6.1 0.00 0.00 0.00 27 1005.1
20260505024824 76 287 1.7 3.5 0.00 0.00 0.00 29 1005.3
20260505024322 77 270 0.0 2.6 0.00 0.00 0.00 27 1004.9
20260505023818 78 283 2.6 3.5 0.00 0.00 0.00 25 1004.9
20260505023315 79 254 0.0 3.5 0.00 0.00 0.00 24 1004.5
20260505022813 79 285 0.9 4.3 0.00 0.00 0.00 23 1004.4
20260505022310 79 221 1.7 2.6 0.00 0.00 0.00 23 1004.7
20260505021807 80 236 1.7 2.6 0.00 0.00 0.00 22 1004.9
20260505021303 79 241 2.6 5.2 0.00 0.00 0.00 23 1005.1
20260505020759 80 239 5.2 7.0 0.00 0.00 0.00 22 1004.8
20260505020254 79 225 3.5 4.3 0.00 0.00 0.00 23 1005.1
20260505015752 79 312 1.7 6.1 0.00 0.00 0.00 23 1005.1
20260505015249 79 270 2.6 6.1 0.00 0.00 0.00 23 1005.1
20260505014746 78 344 2.6 5.2 0.00 0.00 0.00 24 1005.1
20260505014243 79 281 1.7 4.3 0.00 0.00 0.00 24 1004.8
20260505013739 79 292 1.7 5.2 0.00 0.00 0.00 24 1004.9
20260505013237 79 281 2.6 4.3 0.00 0.00 0.00 24 1004.8
20260505012735 79 285 0.0 3.5 0.00 0.00 0.00 25 1004.9
20260505012232 79 270 1.7 2.6 0.00 0.00 0.00 25 1004.9
20260505011728 79 270 0.0 1.7 0.00 0.00 0.00 25 1004.9
20260505011225 80 250 2.6 3.5 0.00 0.00 0.00 24 1005.0
20260505010721 80 257 0.0 2.6 0.00 0.00 0.00 24 1005.0
20260505010217 80 0 0.0 3.5 0.00 0.00 0.00 24 1004.8
20260505005714 80 251 0.0 3.5 0.00 0.00 0.00 23 1004.8
20260505005211 81 270 0.9 2.6 0.00 0.00 0.00 22 1004.8
20260505004708 81 291 0.9 4.3 0.00 0.00 0.00 21 1004.8
20260505004204 81 283 0.9 4.3 0.00 0.00 0.00 20 1004.8
20260505003702 82 291 0.9 7.8 0.00 0.00 0.00 19 1004.9
20260505003159 82 264 1.7 6.1 0.00 0.00 0.00 20 1005.0
20260505002655 82 264 2.6 7.0 0.00 0.00 0.00 19 1005.2
20260505002153 82 299 3.5 6.1 0.00 0.00 0.00 19 1004.9
20260505001650 82 301 5.2 8.7 0.00 0.00 0.00 19 1005.1
20260505001148 83 270 6.1 7.8 0.00 0.00 0.00 19 1005.2
20260505000644 83 253 4.3 7.0 0.00 0.00 0.00 19 1005.1
20260505000143 83 259 4.3 10.4 0.00 0.00 0.00 18 1005.1
20260504235638 83 247 5.2 7.8 0.00 0.00 0.00 18 1005.2
20260504235135 83 293 7.8 13.9 0.00 0.00 0.00 19 1005.0
20260504234632 83 255 6.1 14.8 0.00 0.00 0.00 18 1005.1
20260504234130 83 250 7.8 16.5 0.00 0.00 0.00 19 1005.0
20260504233625 83 257 11.3 13.9 0.00 0.00 0.00 19 1005.1
20260504233121 83 241 8.7 19.1 0.00 0.00 0.00 18 1005.0
20260504232619 83 308 7.8 11.3 0.00 0.00 0.00 18 1005.2
20260504232116 84 309 9.6 14.8 0.00 0.00 0.00 18 1004.9
20260504231613 84 253 12.2 15.6 0.00 0.00 0.00 18 1004.9
20260504231109 84 256 4.3 13.0 0.00 0.00 0.00 19 1005.2
20260504230605 85 294 7.0 12.2 0.00 0.00 0.00 18 1004.8
20260504230104 84 282 10.4 15.6 0.00 0.00 0.00 18 1005.1
20260504225601 85 251 7.0 16.5 0.00 0.00 0.00 17 1004.8
20260504225058 85 228 8.7 16.5 0.00 0.00 0.00 17 1005.3
20260504224555 84 257 7.0 12.2 0.00 0.00 0.00 18 1004.9
20260504224052 84 255 9.6 14.8 0.00 0.00 0.00 17 1005.1
20260504223549 84 273 3.5 14.8 0.00 0.00 0.00 16 1005.2
20260504223044 84 267 3.5 12.2 0.00 0.00 0.00 17 1005.1
20260504222542 84 247 3.5 15.6 0.00 0.00 0.00 17 1005.4
20260504222039 84 239 7.8 12.2 0.00 0.00 0.00 16 1005.0
20260504221536 83 266 6.1 21.7 0.00 0.00 0.00 16 1005.1
20260504221032 84 282 7.0 13.9 0.00 0.00 0.00 17 1005.2
20260504220529 84 239 12.2 20.0 0.00 0.00 0.00 17 1005.3
20260504220026 84 231 13.9 23.5 0.00 0.00 0.00 17 1005.3
20260504215523 84 248 5.2 18.2 0.00 0.00 0.00 17 1005.2
20260504215020 85 262 7.0 17.4 0.00 0.00 0.00 17 1005.4
20260504214516 85 230 10.4 13.0 0.00 0.00 0.00 16 1005.4
20260504214012 86 320 4.3 21.7 0.00 0.00 0.00 16 1005.3
20260504213509 86 247 13.9 18.2 0.00 0.00 0.00 16 1005.3
20260504213007 86 275 7.0 15.6 0.00 0.00 0.00 16 1005.5
20260504212502 86 247 4.3 9.6 0.00 0.00 0.00 16 1005.1
20260504212000 87 242 6.1 8.7 0.00 0.00 0.00 16 1005.4
20260504211456 86 289 1.7 9.6 0.00 0.00 0.00 16 1005.4
20260504210954 86 227 4.3 6.1 0.00 0.00 0.00 17 1005.5
20260504210450 87 278 5.2 8.7 0.00 0.00 0.00 17 1005.7
20260504205947 86 296 4.3 11.3 0.00 0.00 0.00 16 1006.1
20260504205444 87 278 3.5 8.7 0.00 0.00 0.00 17 1006.0
20260504204943 86 214 5.2 9.6 0.00 0.00 0.00 17 1006.1
20260504204441 86 313 5.2 8.7 0.00 0.00 0.00 17 1006.2
20260504203940 86 273 2.6 8.7 0.00 0.00 0.00 18 1006.4
20260504203437 86 310 2.6 10.4 0.00 0.00 0.00 19 1006.3
20260504202933 86 329 2.6 5.2 0.00 0.00 0.00 19 1006.4
20260504202430 85 280 3.5 10.4 0.00 0.00 0.00 18 1006.6
20260504201926 84 232 3.5 9.6 0.00 0.00 0.00 19 1006.5
20260504201424 84 324 2.6 7.0 0.00 0.00 0.00 19 1006.5
20260504200921 84 267 3.5 8.7 0.00 0.00 0.00 19 1006.8
20260504200418 85 275 5.2 11.3 0.00 0.00 0.00 20 1006.8
20260504195915 84 254 3.5 13.9 0.00 0.00 0.00 20 1006.6
20260504195410 84 280 3.5 8.7 0.00 0.00 0.00 19 1006.8
20260504194907 85 308 1.7 8.7 0.00 0.00 0.00 20 1007.1
20260504194403 84 315 2.6 6.1 0.00 0.00 0.00 19 1006.9
20260504193859 85 286 0.9 6.1 0.00 0.00 0.00 19 1007.1
20260504193356 84 248 7.0 11.3 0.00 0.00 0.00 19 1007.4
20260504192855 84 259 1.7 7.8 0.00 0.00 0.00 20 1007.2
20260504192352 84 258 3.5 7.8 0.00 0.00 0.00 19 1007.1
20260504191850 85 228 4.3 7.0 0.00 0.00 0.00 20 1007.3
20260504191348 84 227 4.3 7.0 0.00 0.00 0.00 19 1007.2
20260504190843 84 262 3.5 8.7 0.00 0.00 0.00 19 1007.5
20260504190339 84 247 7.8 10.4 0.00 0.00 0.00 20 1007.4
20260504185836 85 355 1.7 8.7 0.00 0.00 0.00 20 1007.5
20260504185333 84 213 4.3 7.0 0.00 0.00 0.00 20 1007.8
20260504184829 84 261 0.9 4.3 0.00 0.00 0.00 20 1007.7
20260504184325 84 281 2.6 6.1 0.00 0.00 0.00 20 1008.0
20260504183821 84 252 3.5 7.8 0.00 0.00 0.00 20 1007.8
20260504183319 84 303 4.3 6.1 0.00 0.00 0.00 20 1007.9
20260504182816 83 303 2.6 6.1 0.00 0.00 0.00 21 1008.0
20260504182314 83 294 0.9 11.3 0.00 0.00 0.00 21 1008.0
20260504181811 82 254 2.6 9.6 0.00 0.00 0.00 22 1007.8
20260504181308 83 294 1.7 8.7 0.00 0.00 0.00 23 1008.0
20260504180807 83 321 2.6 8.7 0.00 0.00 0.00 24 1008.2
20260504180305 82 244 4.3 9.6 0.00 0.00 0.00 24 1008.4
20260504175803 81 263 2.6 13.9 0.00 0.00 0.00 25 1008.0
20260504175259 81 235 7.0 9.6 0.00 0.00 0.00 25 1008.5
20260504174757 81 251 10.4 11.3 0.00 0.00 0.00 25 1008.7
20260504174255 81 249 3.5 11.3 0.00 0.00 0.00 27 1008.5
20260504173751 81 247 4.3 13.0 0.00 0.00 0.00 27 1008.8
20260504173248 81 238 3.5 13.0 0.00 0.00 0.00 28 1008.6
20260504172745 81 264 6.1 9.6 0.00 0.00 0.00 28 1008.7
20260504172241 80 246 5.2 11.3 0.00 0.00 0.00 27 1008.8
20260504171737 80 225 8.7 13.0 0.00 0.00 0.00 29 1009.0
20260504171235 80 251 5.2 7.0 0.00 0.00 0.00 29 1008.9
20260504170732 80 246 4.3 6.1 0.00 0.00 0.00 29 1009.0
20260504170229 80 225 2.6 9.6 0.00 0.00 0.00 29 1009.0
20260504160147 74 155 2.6 4.3 0.00 0.00 0.00 50 1009.7
20260504151115 68 174 3.5 4.3 0.00 0.00 0.00 62 1010.2
20260504150613 67 174 3.5 4.3 0.00 0.00 0.00 65 1010.3
20260504150109 66 146 1.7 5.2 0.00 0.00 0.00 66 1010.1
20260504141038 62 151 2.6 4.3 0.00 0.00 0.00 76 1010.6
20260504140534 62 166 2.6 3.5 0.00 0.00 0.00 76 1010.6
20260504130459 57 29 0.0 1.7 0.00 0.00 0.00 86 1010.3
20260504110346 56 251 0.0 0.9 0.00 0.00 0.00 83 1009.1
20260504100303 56 81 0.0 1.7 0.00 0.00 0.00 78 1009.4
20260504081657 60 145 0.0 1.7 0.00 0.00 0.00 72 1009.9
20260504081153 60 157 1.7 1.7 0.00 0.00 0.00 71 1009.9
20260504080649 61 162 0.0 2.6 0.00 0.00 0.00 70 1010.0
20260504080146 60 165 1.7 3.5 0.00 0.00 0.00 70 1009.9
20260504070114 61 180 0.0 2.6 0.00 0.00 0.00 69 1011.0